Location: ??????
(30.5519°N, 47.7720°E)
Time: 17:54:04
(UTC+00:00)

SAR-Lupe-4 - Pass Details

Date: 24 January 2021
Orbit: 480 x 484 km, 98.2° (Epoch: 27 February)

Event Time Altitude Azimuth Distance (km) Brightness Sun altitude
Rises 15:15:50 0° 11° (NNE) 2,544 7.0 -12.6°
Reaches altitude 10° 15:17:54 10° 11° (NNE) 1,661 6.0 -13.0°
Maximum altitude 15:21:28 87° 286° (WNW) 486 3.5 -13.8°
Drops below altitude 10° 15:25:00 10° 194° (SSW) 1,648 6.6 -14.5°
Sets 15:27:03 0° 194° (SSW) 2,523 7.6 -14.9°
